Regional Weather Roundup
Issued by NWS

Home | Current Version | Previous Version | Graphics & Text | Print | Product List | Glossary On
Versions: 1 2 3 4 5 6 7 8 9 10 11 12 13 14 15 16 17 18 19 20 21 22 23 24 25 26 27 28 29 30 31 32 33 34 35 36 37 38 39 40 41 42 43 44 45 46 47 48 49 50
000
ASUS43 KMPX 272101
RWRMN
WEATHER ROUNDUP FOR MINNESOTA
NATIONAL WEATHER SERVICE TWIN CITIES/CHANHASSEN MN
400 PM CDT SAT AUG 27 2016


NOTE: "FAIR" INDICATES FEW OR NO CLOUDS BELOW 12,000 FEET WITH NO
SIGNIFICANT WEATHER AND/OR OBSTRUCTIONS TO VISIBILITY. N/A MEANS
CURRENT SKY AND/OR WEATHER CONDITIONS ARE NOT AVAILABLE.

MNZ060>063-068>070-272200-
   Twin Cities Metro

CITY           SKY/WX    TMP DP  RH WIND       PRES   REMARKS
TWIN CITIES    CLOUDY    66  61  84 SE6       30.00S
ST PAUL        CLOUDY    66  62  87 SE8       30.00F
CRYSTAL        CLOUDY    66  59  78 S8        29.98F
BLAINE         CLOUDY    68  64  88 SE8       30.00S
LAKEVILLE      CLOUDY    64  64 100 S3        30.00S FOG
EDEN PRAIRIE   CLOUDY    67  62  84 S7        29.98F
LAKEVILLE      CLOUDY    64  64 100 S3        30.00S FOG
SOUTH ST PAUL  CLOUDY    65  63  91 SE5       30.00S
LAKE ELMO      CLOUDY    64  61  88 SE6       30.01F
$$
MNZ001>005-007-008-013>017-022>024-027-028-272200-
   Northwest Minnesota

CITY           SKY/WX    TMP DP  RH WIND       PRES   REMARKS
BEMIDJI        CLOUDY    58  55  89 NW10      30.00F
HALLOCK        MOSUNNY   66  59  77 S6        29.91R
ROSEAU         CLOUDY    59  54  82 S5        29.94S
WARROAD        CLOUDY    61  55  82 CALM      29.95F
THIEF RVR FALL CLOUDY    62  57  83 S13       29.94F
CROOKSTON      MOSUNNY   66  57  72 S14       29.92F
FOSSTON        CLOUDY    55  54  94 SE6       29.94F
DETROIT LAKES  CLOUDY    66  55  68 S7        29.98S
MOORHEAD       PTSUNNY   70  57  64 SE12G17   29.94S
PARK RAPIDS    CLOUDY    71  55  56 S14       29.96F
MAHNOMEN       DRIZZLE   60  57  92 E9        29.96F
$$
MNZ006-009>011-018-025>026-272200-
   North Central Minnesota

CITY           SKY/WX    TMP DP  RH WIND       PRES   REMARKS
BAUDETTE       CLOUDY    59  56  89 VRB5      29.94F
FLAG ISLAND    DRIZZLE   61  57  88 CALM      29.94S
INTL FALLS     CLOUDY    61  58  90 SE6       29.99F
WASKISH        LGT RAIN  57  55  94 S3        29.97F
BIG FORK       LGT RAIN  63  61  94 CALM      30.01S
LONGVILLE      CLOUDY    66  57  72 S7        30.00R
GRAND RAPIDS   CLOUDY    67  57  70 S6        30.01S
CRANE LAKE     CLOUDY    61  57  88 CALM      30.04S
ORR            CLOUDY    63  57  82 CALM      29.99F
COOK           CLOUDY    64  55  72 SE3       30.02S
WALKER         CLOUDY    66  59  77 CALM      29.98F THUNDER
$$
MNZ012-019>021-037-272200-
   Northeast Minnesota

CITY           SKY/WX    TMP DP  RH WIND       PRES   REMARKS
DULUTH         PTSUNNY   64  58  80 SE8       30.03F
ELY            CLOUDY    64  52  63 SE7       30.04F
HIBBING        CLOUDY    65  55  70 SE5       30.01S
EVELETH        CLOUDY    66  54  65 SE3       30.03F
DULUTH HARBOR  PTSUNNY   64  61  88 E10       30.02F
TWO HARBORS    PTSUNNY   66  61  82 E9        30.02F
SILVER BAY     CLOUDY    64  57  77 NE7       30.03S
G MARAIS ARPRT CLOUDY    59  48  67 CALM      30.09F
$$
MNZ029>031-032-039>041-046>048-054>057-064-272200-
   West Central Minnesota

CITY           SKY/WX    TMP DP  RH WIND       PRES   REMARKS
FERGUS FALLS   CLOUDY    70  57  64 N10       29.98R
WHEATON        SUNNY     73  63  68 SE8       29.96F
MORRIS         PTSUNNY   72  59  64 S8        29.97S
ALEXANDRIA     CLOUDY    68  57  68 S7        30.01R
ELBOW LAKE     FAIR      71  60  67 S12       29.98S
WADENA         CLOUDY    70  55  60 S8        29.99S
GLENWOOD       MOSUNNY   66  57  72 S5        30.00S
APPLETON       CLOUDY    70  59  68 S7        29.97S
BENSON         CLOUDY    70  57  64 SW6       29.98S
ORTONVILLE     MOSUNNY   72  59  64 SE8       29.95F
MADISON        MOSUNNY   72  61  68 S5        29.96F
WILLMAR        CLOUDY    68  61  77 S3        30.00S
$$
MNZ033>034-036-042>043-049>051-058-059-272200-
   Central Minnesota

CITY           SKY/WX    TMP DP  RH WIND       PRES   REMARKS
ST CLOUD       CLOUDY    62  61  96 SE5       30.00S FOG
SAUK CENTRE    CLOUDY    66  57  73 SE7       30.00R
PAYNESVILLE    CLOUDY    65  58  79 S5        30.00S
AITKIN         CLOUDY    70  55  60 S8        29.99S
PINE RIVER     CLOUDY    66  57  72 S3        30.03R
BRAINERD       CLOUDY    67  57  70 S8        30.00S
STAPLES        CLOUDY    66  55  68 S8        30.00R
LONG PRAIRIE   CLOUDY    64  55  72 E5        30.01R
LITTLE FALLS   CLOUDY    64  55  72 S5        30.01R
LITCHFIELD     PTSUNNY   68  63  83 CALM      30.00R
BUFFALO        CLOUDY    66  60  82 S5        30.00F
MAPLE LAKE     LGT RAIN  64  63  96 CALM      30.00F
HUTCHINSON     CLOUDY    69  63  82 S3        30.00S
$$
MNZ037-044-045-052-053-272200-
   East Central Minnesota

CITY           SKY/WX    TMP DP  RH WIND       PRES   REMARKS
PRINCETON        N/A     64  61  88 E3        30.00S FOG
MORA           PTSUNNY   64  61  88 SE3       30.02F
CAMBRIDGE      DRIZZLE   64  57  77 CALM      29.98F
RUSH CITY      LGT RAIN  63  60  91 CALM      30.01S
MOOSE LAKE     CLOUDY    64  55  72 S3        29.99F
HINCKLEY       CLOUDY    64  61  88 SE5       30.01F
CLOQUET        CLOUDY    64  57  77 E6        30.02S
MCGREGOR       CLOUDY    66  59  77 S7        30.01S
$$
MNZ071>073-080-081-089-090-097-098-272200-
   Southwest Minnesota

CITY           SKY/WX    TMP DP  RH WIND       PRES   REMARKS
MONTEVIDEO     CLOUDY    72  64  78 W5        29.99F
GRANITE FALLS  CLOUDY    71  63  75 S8        30.00S
CANBY          PTSUNNY   74  60  63 S10       29.98S
MARSHALL       CLOUDY    71  61  70 SW7       29.98F
REDWOOD FALLS  CLOUDY    70  61  73 SW10      29.98S
OLIVIA         CLOUDY    70  61  73 S6        29.99R
PIPESTONE      MOSUNNY   72  61  68 S6        30.00S
WINDOM         CLOUDY    72  63  73 SW8       30.00F
WORTHINGTON    PTSUNNY   72  62  71 SW8       30.01F
JACKSON          N/A     72  61  68 SW8       30.01F
TRACY          MOSUNNY   72  62  72 SW7       29.99F
SLAYTON        CLOUDY    70  61  73 SW8       30.01F
$$
MNZ065>067-074>077-082>085-091>093-272200-
   South Central Minnesota

CITY           SKY/WX    TMP DP  RH WIND       PRES   REMARKS
MANKATO        CLOUDY    66  61  82 SW3       30.01S
NEW ULM          N/A     70  63  78 S5        29.99S
ST JAMES       CLOUDY    66  61  82 S6        30.00F
FAIRMONT       PTSUNNY   74  65  73 W9        30.00F
GLENCOE        CLOUDY    68  65  89 CALM      29.99S
FARIBAULT      CLOUDY    66  64  94 S3        30.01S
OWATONNA       PTSUNNY   70  63  78 SW7       30.01S
WASECA         CLOUDY    68  61  77 SW8       30.03R
ALBERT LEA     CLOUDY    70  64  83 SW5       30.01S
$$
MNZ078>079-086>088-094>096-272200-
   Southeast Minnesota

CITY           SKY/WX    TMP DP  RH WIND       PRES   REMARKS
ROCHESTER      CLOUDY    69  65  86 S7        30.02F
RED WING       CLOUDY    66  64  94 SE5       29.99F
DODGE CENTER   CLOUDY    68  64  88 SW9       30.01F
WINONA         CLOUDY    70  63  78 SE3       30.01F
AUSTIN         CLOUDY    70  64  83 SW6       30.01F
PRESTON        CLOUDY    68  64  85 SW5       30.03S
$$
ABBREVIATIONS USED IN REMARKS
   TC - TEMPERATURES IN CELSIUS
  WCI - WIND CHILL INDEX
   HX - HEAT INDEX
  VSB - VISIBILITY
$$




USA.gov is the U.S. government's official web portal to all federal, state and local government web resources and services.